This demonstration page uses our WeatherBlox Daily Observations layout. Learn more.

39.29038, -76.61219

Hourly Observations for July 2, 2015

Temp ( °F °C ) Dew Point ( °F °C ) Humidity (%) Winds ( mph kmh ) Pressure ( in mb ) Visibility ( mi km ) Precip ( " mm )
12:54 am 00:54 Mostly Cloudy 75 24 63 17 65 65 undefined N/A 29.91 1013 N/A 0 0
1:54 am 01:54 Clear 75 24 63 17 65 65 undefined N/A 29.91 1013 N/A 0 0
2:54 am 02:54 Mostly Clear 73 23 63 17 69 69 undefined N/A 29.88 1012 N/A 0 0
3:54 am 03:54 Cloudy 73 23 63 17 69 69 undefined N/A 29.88 1012 N/A 0 0
4:54 am 04:54 Clear 72 22 63 17 73 73 undefined N/A 29.88 1012 N/A 0 0
5:54 am 05:54 Partly Cloudy 73 23 61 16 65 65 undefined N/A 29.88 1012 N/A 0 0
6:54 am 06:54 undefined 73 23 61 16 65 65 undefined N/A 29.88 1012 N/A 0 0
7:54 am 07:54 undefined 72 22 61 16 69 69 undefined N/A 29.91 1013 N/A 0 0
8:54 am 08:54 Mostly Sunny 72 22 61 16 69 69 undefined N/A 29.94 1014 N/A 0 0
9:54 am 09:54 undefined 72 22 63 17 73 73 undefined N/A 29.91 1013 N/A 0 0
10:54 am 10:54 Cloudy 73 23 63 17 69 69 undefined N/A 29.94 1014 N/A 0.11 2.794
11:54 am 11:54 Mostly Cloudy 73 23 63 17 69 69 undefined N/A 29.91 1013 N/A 0 0
12:54 pm 12:54 undefined 75 24 63 17 65 65 undefined N/A 29.91 1013 N/A 0 0
1:54 pm 13:54 Mostly Sunny 75 24 63 17 65 65 undefined N/A 29.91 1013 N/A 0 0
2:54 pm 14:54 undefined 75 24 63 17 65 65 undefined N/A 29.91 1013 N/A 0 0
3:54 pm 15:54 Mostly Cloudy 75 24 63 17 65 65 undefined N/A 29.91 1013 N/A 0 0
4:54 pm 16:54 Cloudy 75 24 63 17 65 65 undefined N/A 29.88 1012 N/A 0 0
5:54 pm 17:54 Partly Cloudy 73 23 63 17 69 69 undefined N/A 29.88 1012 N/A 0 0
6:54 pm 18:54 undefined 73 23 63 17 69 69 undefined N/A 29.88 1012 N/A 0 0
7:54 pm 19:54 Mostly Sunny 73 23 63 17 69 69 undefined N/A 29.88 1012 N/A 0 0
8:54 pm 20:54 Cloudy 73 23 63 17 69 69 undefined N/A 29.88 1012 N/A 0 0
9:54 pm 21:54 Mostly Clear 72 22 64 18 78 78 undefined N/A 29.91 1013 N/A 0 0
10:54 pm 22:54 undefined 72 22 64 18 78 78 undefined N/A 29.91 1013 N/A 0 0
11:54 pm 23:54 undefined 72 22 64 18 78 78 undefined N/A 29.91 1013 N/A 0 0

Powered by AerisWeather